Home > Weather > Querétaro > Past weeks

Flag for Mexico Weather for the Past 2 Weeks in Querétaro, Querétaro, Mexico

Now
84 °F

Partly sunny.


Feels Like: 81 °F
Forecast: N/A
Wind: 17 mph from Northwest

Location: Queretaro - Qro.

Current Time: May 1, 2016 at 6:53:45 PM

Latest Report: May 1, 2016 at 5:45 PM


Visibility: 8 mi

Pressure: 30.11 "Hg (24.52 "Hg at 1817m altitude)

Humidity: 8%

Dew Point: 18 °F

Location of QuerétaroLocation

Historic Weather in Querétaro — Graph

°F

Querétaro Temperature Yesterday

Maximum temperature yesterday: 81 °F (at 5:00 PM)
Minimum temperature yesterday: 54 °F (at 6:45 AM)
Average temperature yesterday: 70 °F

High & Low Weather Summary for the Past Weeks

 TemperatureHumidityPressure
High90 °F (Apr 28, 3:45 PM)94% (Apr 22, 6:45 AM)30.41 "Hg (Apr 22, 6:45 AM)
Low45 °F (Apr 27, 6:45 AM)5% (Apr 27, 3:45 PM)30.06 "Hg (Apr 27, 4:45 PM)
Average68 °F39%30.22 "Hg
* Reported Apr 16 4:50 PM — May 1 4:45 PM, Querétaro, Weather by CustomWeather, © 2016

Note: Actual official high and low records may vary slightly from our data, if they occured in-between our weather recording intervals... More about our weather records

Advertising

Querétaro Weather History for the Previous 24 Hours

Scroll right to see more
 ConditionsComfort  
Time TempWeatherWind HumidityBarometerVisibility
4:45 PM
Sun, May 1
84 °FPartly sunny.16 mph9%30.11 "Hg8 mi
3:50 PM88 °FPartly sunny.14 mph7%30.15 "Hg8 mi
2:45 PM82 °FBroken clouds.14 mph11%30.15 "Hg8 mi
1:45 PM82 °FBroken clouds.21 mph15%30.17 "Hg8 mi
12:45 PM81 °FPartly sunny.12 mph14%30.19 "Hg8 mi
11:45 AM79 °FBroken clouds.9 mph15%30.21 "Hg8 mi
10:45 AM75 °FBroken clouds.5 mph16%30.24 "Hg8 mi
9:45 AM68 °FBroken clouds.5 mph23%30.23 "Hg8 mi
9:03 AM63 °FScattered clouds.3 mph22%30.21 "Hg8 mi
6:45 AM48 °FPassing clouds.No wind43%30.17 "Hg7 mi
5:45 AM48 °FPassing clouds.No wind66%30.17 "Hg7 mi
4:45 AM52 °FPassing clouds.No wind58%30.16 "Hg7 mi
3:45 AM54 °FPassing clouds.No wind35%30.15 "Hg7 mi
2:45 AM59 °FPassing clouds.No wind29%30.16 "Hg7 mi
11:45 PM
Sat, Apr 30
66 °FPassing clouds.8 mph22%30.18 "Hg7 mi
10:45 PM66 °FPassing clouds.6 mph22%30.17 "Hg7 mi
9:45 PM68 °FPassing clouds.No wind21%30.15 "Hg7 mi
8:45 PM73 °FBroken clouds.No wind14%30.13 "Hg7 mi
7:47 PM75 °FBroken clouds.6 mph14%30.10 "Hg7 mi
Weather by CustomWeather, © 2016

See weather overviewHow to use our weather pages